Location: Fours
(44.3167°N, 6.7000°E)
Time: 18:31:05
(UTC+00:00)

H-2A R/B - Pass Details

Date: 30 November 2020
Orbit: 733 x 836 km, 98.2° (Epoch: 23 January)

Event Time Altitude Azimuth Distance (km) Brightness Sun altitude
Rises 17:59:02 0° 152° (SSE) 3,324 5.1 -21.5°
Enters shadow 17:59:24 - 151° (SSE) 3,179 5.0 -21.5°
Exits shadow 18:06:40 54° 66° (ENE) 956 2.1 -22.8°
Drops below altitude 10° 18:11:33 10° 356° (N) 2,333 4.5 -23.7°
Sets 18:13:53 0° 352° (N) 3,249 5.3 -24.1°
